Fergus Falls, MN

2:50 AM CST on December 09, 2019 (GMT -0600)
Fergus Falls Municipal-Mickelson

Weather History for KFFM - October, 2019

Change the Weather History Date:

Friday, October 18, 2019

  Actual Average Record
Temperature  
Mean Temperature 56 °F -  
Max Temperature 64 °F 54 °F 93 °F (2011)
Min Temperature 48 °F 32 °F 13 °F (1972)
Degree Days  
Heating Degree Days 9    
Growing Degree Days 6 (Base 50)    
Moisture  
Dew Point 44 °F    
Average Humidity 69    
Maximum Humidity 87    
Minimum Humidity 52    
Precipitation  
Precipitation 0.00 in - - ()
Sea Level Pressure  
Sea Level Pressure 29.51 in    
Wind  
Wind Speed 16 mph ()    
Max Wind Speed 25 mph    
Max Gust Speed 32 mph    
Visibility 10.0 miles    
Events      
Averages and records for this station are not official NWS values.
T = Trace of Precipitation, MM = Missing Value Source: Averaged Metar Reports

Daily Weather History Graph

Daily Weather History Graph

Search for Another Location

Airport or City:

Astronomy

Oct. 18, 2019 Rise Set
Actual Time 7:45 AM CDT 6:33 PM CDT
Civil Twilight 7:15 AM CDT 7:03 PM CDT
Nautical Twilight 6:40 AM CDT 7:38 PM CDT
Astronomical Twilight 6:05 AM CDT 8:13 PM CDT
Moon 9:37 PM CDT (10/18) 12:32 PM CDT (10/18)
Length of Visible Light 11h 48m
Length of Day
10h 47m
Waning Gibbous, 78% of the Moon is Illuminated
Oct 18
Waning Gibbous
Oct 21
Last Quarter
Oct 27
New
Nov 4
First Quarter
Nov 12
Full

Hourly Weather History & Observations

Time (CDT) Temp. Dew Point Humidity Pressure Visibility Wind Dir Wind Speed Gust Speed Precip Events Conditions
12:15 AM 50.0 °F 39.2 °F 66% 29.68 in 10.0 mi SE 19.6 mph 24.2 mph N/A   Clear
12:16 AM 50.0 °F 39.2 °F 66% 29.68 in 10.0 mi SE 17.3 mph 24.2 mph N/A   Clear
12:35 AM 50.0 °F 39.2 °F 66% 29.68 in 10.0 mi SSE 17.3 mph 25.3 mph N/A   Clear
12:39 AM 50.0 °F 39.2 °F 66% 29.68 in 10.0 mi SE 16.1 mph 24.2 mph N/A   Clear
12:58 AM 50.0 °F 39.2 °F 66% 29.68 in 10.0 mi SE 16.1 mph 25.3 mph N/A   Clear
1:15 AM 48.2 °F 39.2 °F 71% 29.67 in 10.0 mi SE 16.1 mph 23.0 mph N/A   Clear
1:35 AM 48.2 °F 39.2 °F 71% 29.66 in 10.0 mi SE 15.0 mph 23.0 mph N/A   Clear
1:36 AM 48.2 °F 39.2 °F 71% 29.66 in 10.0 mi SE 15.0 mph - N/A   Clear
1:55 AM 48.2 °F 39.2 °F 71% 29.65 in 10.0 mi SE 15.0 mph 23.0 mph N/A   Clear
1:56 AM 48.2 °F 39.2 °F 71% 29.65 in 10.0 mi SE 15.0 mph 23.0 mph N/A   Clear
2:18 AM 48.2 °F 39.2 °F 71% 29.63 in 10.0 mi SE 13.8 mph 20.7 mph N/A   Clear
2:37 AM 48.2 °F 39.2 °F 71% 29.62 in 10.0 mi SE 19.6 mph 26.5 mph N/A   Clear
2:56 AM 50.0 °F 39.2 °F 66% 29.62 in 10.0 mi SSE 17.3 mph 25.3 mph N/A   Clear
3:15 AM 50.0 °F 41.0 °F 71% 29.61 in 10.0 mi SE 19.6 mph 28.8 mph N/A   Clear
3:16 AM 51.8 °F 41.0 °F 67% 29.61 in 10.0 mi SE 20.7 mph 28.8 mph N/A   Clear
3:38 AM 51.8 °F 41.0 °F 67% 29.59 in 10.0 mi SSE 25.3 mph 32.2 mph N/A   Clear
3:56 AM 50.0 °F 41.0 °F 71% 29.59 in 10.0 mi SE 23.0 mph 28.8 mph N/A   Clear
4:15 AM 50.0 °F 41.0 °F 71% 29.58 in 10.0 mi SSE 18.4 mph 29.9 mph N/A   Clear
4:35 AM 50.0 °F 41.0 °F 71% 29.57 in 10.0 mi SSE 24.2 mph 29.9 mph N/A   Clear
4:36 AM 50.0 °F 41.0 °F 71% 29.57 in 10.0 mi SSE 23.0 mph 29.9 mph N/A   Clear
4:58 AM 50.0 °F 41.0 °F 71% 29.57 in 10.0 mi SSE 19.6 mph 26.5 mph N/A   Clear
5:16 AM 50.0 °F 41.0 °F 71% 29.56 in 10.0 mi SE 21.9 mph 28.8 mph N/A   Clear
5:35 AM 48.2 °F 41.0 °F 76% 29.55 in 10.0 mi SSE 19.6 mph 27.6 mph N/A   Clear
5:36 AM 48.2 °F 41.0 °F 76% 29.55 in 10.0 mi SSE 19.6 mph 27.6 mph N/A   Clear
5:55 AM 48.2 °F 41.0 °F 76% 29.55 in 10.0 mi SSE 18.4 mph 28.8 mph N/A   Clear
5:56 AM 48.2 °F 41.0 °F 76% 29.55 in 10.0 mi SSE 19.6 mph 28.8 mph N/A   Clear
6:15 AM 48.2 °F 41.0 °F 76% 29.54 in 10.0 mi SE 23.0 mph 28.8 mph N/A   Clear
6:20 AM 48.2 °F 41.0 °F 76% 29.54 in 10.0 mi SE 18.4 mph 28.8 mph N/A   Clear
6:37 AM 48.2 °F 41.0 °F 76% 29.53 in 10.0 mi SE 19.6 mph 26.5 mph N/A   Clear
6:56 AM 48.2 °F 41.0 °F 76% 29.52 in 10.0 mi SSE 20.7 mph 28.8 mph N/A   Clear
7:15 AM 48.2 °F 41.0 °F 76% 29.52 in 10.0 mi SSE 21.9 mph 28.8 mph N/A   Clear
7:16 AM 48.2 °F 41.0 °F 76% 29.52 in 10.0 mi SSE 23.0 mph 28.8 mph N/A   Clear
7:35 AM 48.2 °F 41.0 °F 76% 29.52 in 10.0 mi SSE 23.0 mph 28.8 mph N/A   Clear
7:36 AM 48.2 °F 41.0 °F 76% 29.52 in 10.0 mi SSE 23.0 mph 28.8 mph N/A   Clear
7:58 AM 48.2 °F 41.0 °F 76% 29.51 in 10.0 mi SSE 21.9 mph 28.8 mph N/A   Clear
8:16 AM 48.2 °F 41.0 °F 76% 29.51 in 10.0 mi SSE 18.4 mph 23.0 mph N/A   Clear
8:36 AM 48.2 °F 42.8 °F 82% 29.52 in 10.0 mi SSE 17.3 mph 24.2 mph N/A   Clear
8:55 AM 48.2 °F 42.8 °F 82% 29.53 in 10.0 mi SSE 17.3 mph 24.2 mph N/A   Clear
9:15 AM 48.2 °F 42.8 °F 82% 29.51 in 10.0 mi SSE 19.6 mph 25.3 mph N/A   Clear
9:19 AM 50.0 °F 42.8 °F 76% 29.51 in 10.0 mi SSE 17.3 mph 25.3 mph N/A   Clear
9:37 AM 50.0 °F 42.8 °F 76% 29.50 in 10.0 mi SSE 18.4 mph 24.2 mph N/A   Clear
9:56 AM 51.8 °F 42.8 °F 71% 29.50 in 10.0 mi SSE 17.3 mph 24.2 mph N/A   Clear
10:15 AM 51.8 °F 42.8 °F 71% 29.50 in 10.0 mi SSE 21.9 mph 31.1 mph N/A   Clear
10:16 AM 51.8 °F 42.8 °F 71% 29.49 in 10.0 mi SSE 23.0 mph 31.1 mph N/A   Clear
10:35 AM 53.6 °F 42.8 °F 67% 29.49 in 10.0 mi SSE 24.2 mph 29.9 mph N/A   Clear
10:36 AM 53.6 °F 42.8 °F 67% 29.49 in 10.0 mi SSE 20.7 mph 29.9 mph N/A   Clear
10:59 AM 53.6 °F 44.6 °F 72% 29.49 in 10.0 mi South 18.4 mph 26.5 mph N/A   Clear
11:16 AM 55.4 °F 44.6 °F 67% 29.48 in 10.0 mi SSE 21.9 mph 27.6 mph N/A   Clear
11:36 AM 55.4 °F 44.6 °F 67% 29.48 in 10.0 mi SSE 18.4 mph 26.5 mph N/A   Clear
11:55 AM 57.2 °F 44.6 °F 63% 29.47 in 10.0 mi SSE 18.4 mph 24.2 mph N/A   Clear
12:15 PM 57.2 °F 44.6 °F 63% 29.46 in 10.0 mi SSE 18.4 mph - N/A   Clear
12:19 PM 59.0 °F 44.6 °F 59% 29.46 in 10.0 mi SSE 20.7 mph 25.3 mph N/A   Clear
12:38 PM 59.0 °F 44.6 °F 59% 29.45 in 10.0 mi SSE 21.9 mph 26.5 mph N/A   Clear
12:55 PM 60.8 °F 44.6 °F 55% 29.44 in 10.0 mi SSE 19.6 mph 26.5 mph N/A   Clear
1:15 PM 60.8 °F 46.4 °F 59% 29.43 in 10.0 mi SSE 18.4 mph - N/A   Clear
1:16 PM 60.8 °F 46.4 °F 59% 29.43 in 10.0 mi SSE 20.7 mph - N/A   Clear
1:35 PM 62.6 °F 46.4 °F 55% 29.42 in 10.0 mi SSE 18.4 mph 24.2 mph N/A   Clear
1:36 PM 62.6 °F 46.4 °F 55% 29.42 in 10.0 mi SSE 18.4 mph 24.2 mph N/A   Clear
1:58 PM 62.6 °F 44.6 °F 52% 29.41 in 10.0 mi SSE 18.4 mph 28.8 mph N/A   Clear
2:17 PM 62.6 °F 44.6 °F 52% 29.39 in 10.0 mi SSE 20.7 mph - N/A   Clear
2:36 PM 62.6 °F 44.6 °F 52% 29.39 in 10.0 mi SSE 17.3 mph 24.2 mph N/A   Clear
2:55 PM 62.6 °F 46.4 °F 55% 29.40 in 10.0 mi South 18.4 mph 25.3 mph N/A   Clear
2:56 PM 62.6 °F 46.4 °F 55% 29.40 in 10.0 mi South 18.4 mph 24.2 mph N/A   Clear
3:15 PM 62.6 °F 46.4 °F 55% 29.40 in 10.0 mi South 20.7 mph 26.5 mph N/A   Clear
3:19 PM 62.6 °F 46.4 °F 55% 29.41 in 10.0 mi South 18.4 mph 26.5 mph N/A   Clear
3:37 PM 62.6 °F 46.4 °F 55% 29.42 in 10.0 mi South 18.4 mph - N/A   Clear
3:55 PM 64.4 °F 46.4 °F 52% 29.41 in 10.0 mi South 19.6 mph 23.0 mph N/A   Scattered Clouds
4:15 PM 62.6 °F 46.4 °F 55% 29.42 in 10.0 mi SSE 15.0 mph - N/A   Mostly Cloudy
4:16 PM 62.6 °F 46.4 °F 55% 29.42 in 10.0 mi SSE 17.3 mph - N/A   Mostly Cloudy
4:35 PM 62.6 °F 46.4 °F 55% 29.42 in 10.0 mi South 13.8 mph - N/A   Overcast
4:58 PM 62.6 °F 46.4 °F 55% 29.42 in 10.0 mi South 10.4 mph - N/A   Overcast
5:17 PM 62.6 °F 48.2 °F 59% 29.42 in 10.0 mi South 9.2 mph - N/A   Overcast
5:35 PM 60.8 °F 48.2 °F 63% 29.42 in 10.0 mi South 8.1 mph - N/A   Overcast
5:55 PM 60.8 °F 48.2 °F 63% 29.43 in 10.0 mi SSE 5.8 mph - N/A   Overcast
5:56 PM 60.8 °F 48.2 °F 63% 29.43 in 10.0 mi SSE 5.8 mph - N/A   Overcast
6:15 PM 59.0 °F 48.2 °F 67% 29.43 in 10.0 mi South 6.9 mph - N/A   Overcast
6:20 PM 59.0 °F 48.2 °F 67% 29.43 in 10.0 mi South 5.8 mph - N/A   Overcast
6:38 PM 59.0 °F 48.2 °F 67% 29.43 in 10.0 mi South 4.6 mph - N/A   Overcast
6:55 PM 57.2 °F 46.4 °F 67% 29.44 in 10.0 mi SW 4.6 mph - N/A   Mostly Cloudy
7:15 PM 57.2 °F 48.2 °F 72% 29.45 in 10.0 mi WSW 5.8 mph - N/A   Mostly Cloudy
7:16 PM 57.2 °F 48.2 °F 72% 29.45 in 10.0 mi WSW 5.8 mph - N/A   Overcast
7:35 PM 57.2 °F 48.2 °F 72% 29.45 in 10.0 mi WSW 3.5 mph - N/A   Overcast
7:36 PM 57.2 °F 48.2 °F 72% 29.45 in 10.0 mi WSW 3.5 mph - N/A   Overcast
7:59 PM 57.2 °F 48.2 °F 72% 29.46 in 10.0 mi West 4.6 mph - N/A   Overcast
8:16 PM 57.2 °F 48.2 °F 72% 29.46 in 10.0 mi WSW 3.5 mph - N/A   Overcast
8:36 PM 55.4 °F 46.4 °F 72% 29.46 in 10.0 mi WSW 4.6 mph - N/A   Overcast
8:55 PM 55.4 °F 46.4 °F 72% 29.48 in 10.0 mi West 6.9 mph - N/A   Mostly Cloudy
9:15 PM 53.6 °F 46.4 °F 77% 29.48 in 10.0 mi WNW 8.1 mph - N/A   Scattered Clouds
9:19 PM 53.6 °F 46.4 °F 77% 29.48 in 10.0 mi WNW 8.1 mph - N/A   Clear
9:37 PM 51.8 °F 46.4 °F 82% 29.49 in 10.0 mi WNW 8.1 mph - N/A   Clear
9:55 PM 53.6 °F 46.4 °F 77% 29.49 in 10.0 mi NW 6.9 mph - N/A   Clear
10:15 PM 51.8 °F 46.4 °F 82% 29.51 in 10.0 mi WNW 6.9 mph - N/A   Clear
10:35 PM 51.8 °F 46.4 °F 82% 29.51 in 10.0 mi West 8.1 mph - N/A   Clear
10:36 PM 51.8 °F 46.4 °F 82% 29.52 in 10.0 mi West 9.2 mph - N/A   Clear
10:59 PM 51.8 °F 46.4 °F 82% 29.53 in 10.0 mi West 6.9 mph - N/A   Clear
11:16 PM 51.8 °F 46.4 °F 82% 29.53 in 10.0 mi West 6.9 mph - N/A   Clear
11:36 PM 50.0 °F 44.6 °F 82% 29.54 in 10.0 mi West 6.9 mph - N/A   Clear
11:55 PM 48.2 °F 44.6 °F 87% 29.53 in 10.0 mi WNW 9.2 mph - N/A   Clear
11:56 PM 48.2 °F 44.6 °F 87% 29.52 in 10.0 mi WNW 10.4 mph - N/A   Clear